UAL2214 KORL-KORL

Flight info

Callsign UAL2214
Flight time 0h 18m
Altitude 12000
Route KTIX KSFB
Aircraft B77W/H-SDE1E2E3FGHIJ2J3J4J5M1RWXY/LB1D1

Departure

Time 2026-05-05 00:45
Airport Orlando Executive Airport (KORL)

Arrival

Time 2026-05-05 01:04
Airport Orlando Executive Airport (KORL)
Time Latitude Longitude Altitude Speed Heading
2026-05-05 00:19 28.54822 -81.33167 119 ft 0 kts 68°
2026-05-05 00:35 28.54824 -81.33160 119 ft 3 kts 71°
2026-05-05 00:35 28.54811 -81.33111 119 ft 10 kts 96°
2026-05-05 00:35 28.54829 -81.33085 119 ft 3 kts 329°
2026-05-05 00:36 28.54836 -81.33114 119 ft 4 kts 258°
2026-05-05 00:36 28.54819 -81.33149 119 ft 3 kts 234°
2026-05-05 00:36 28.54809 -81.33160 119 ft 1 kts 213°
2026-05-05 00:36 28.54778 -81.33164 119 ft 8 kts 178°
2026-05-05 00:37 28.54710 -81.33209 119 ft 16 kts 242°
2026-05-05 00:37 28.54658 -81.33338 116 ft 18 kts 246°
2026-05-05 00:37 28.54605 -81.33475 116 ft 18 kts 246°
2026-05-05 00:37 28.54553 -81.33613 115 ft 19 kts 247°
2026-05-05 00:38 28.54497 -81.33762 113 ft 20 kts 247°
2026-05-05 00:38 28.54472 -81.33827 113 ft 2 kts 246°
2026-05-05 00:38 28.54462 -81.33854 113 ft 4 kts 246°
2026-05-05 00:38 28.54446 -81.33895 113 ft 6 kts 246°
2026-05-05 00:39 28.54430 -81.33937 113 ft 4 kts 247°
2026-05-05 00:39 28.54426 -81.33946 113 ft 0 kts 247°
2026-05-05 00:40 28.54417 -81.33964 113 ft 3 kts 216°
2026-05-05 00:40 28.54392 -81.33969 113 ft 1 kts 175°
2026-05-05 00:40 28.54382 -81.33965 113 ft 0 kts 159°
2026-05-05 00:43 28.54316 -81.33936 113 ft 9 kts 159°
2026-05-05 00:44 28.54290 -81.33915 113 ft 2 kts 96°
2026-05-05 00:44 28.54292 -81.33905 113 ft 0 kts 67°
2026-05-05 00:44 28.54309 -81.33859 113 ft 22 kts 68°
2026-05-05 00:45 28.54530 -81.33276 124 ft 138 kts 68°
2026-05-05 00:45 28.55025 -81.32103 858 ft 177 kts 64°
2026-05-05 00:45 28.55673 -81.31008 1950 ft 177 kts 55°
2026-05-05 00:45 28.56479 -81.29834 2570 ft 202 kts 54°
2026-05-05 00:46 28.57406 -81.28490 2647 ft 240 kts 54°
2026-05-05 00:46 28.58215 -81.26583 2653 ft 296 kts 77°
2026-05-05 00:46 28.58567 -81.24195 2654 ft 312 kts 82°
2026-05-05 00:46 28.58861 -81.21595 3163 ft 351 kts 83°
2026-05-05 00:47 28.59168 -81.18969 4342 ft 325 kts 83°
2026-05-05 00:47 28.59453 -81.16579 4822 ft 288 kts 83°
2026-05-05 00:47 28.59722 -81.14408 4956 ft 266 kts 83°
2026-05-05 00:47 28.59974 -81.12403 4975 ft 250 kts 83°
2026-05-05 00:48 28.60222 -81.10435 4990 ft 259 kts 83°
2026-05-05 00:48 28.60484 -81.08340 4989 ft 276 kts 83°
2026-05-05 00:48 28.60756 -81.06211 4977 ft 268 kts 81°
2026-05-05 00:48 28.61419 -81.04275 4853 ft 259 kts 56°
2026-05-05 00:49 28.62736 -81.02923 4605 ft 261 kts 35°
2026-05-05 00:49 28.64425 -81.02090 4330 ft 269 kts 12°
2026-05-05 00:49 28.66309 -81.02216 4043 ft 271 kts 344°
2026-05-05 00:49 28.67932 -81.03306 3760 ft 275 kts 317°
2026-05-05 00:50 28.68957 -81.05110 3477 ft 277 kts 290°
2026-05-05 00:50 28.69178 -81.07284 3201 ft 279 kts 266°
2026-05-05 00:50 28.68976 -81.09463 2963 ft 279 kts 263°
2026-05-05 00:50 28.68744 -81.11670 2719 ft 279 kts 263°
2026-05-05 00:51 28.68623 -81.12805 2596 ft 279 kts 263°
2026-05-05 00:51 28.68496 -81.13997 2465 ft 278 kts 263°
2026-05-05 00:51 28.68264 -81.16165 2225 ft 278 kts 263°
2026-05-05 00:52 28.68030 -81.18359 2020 ft 275 kts 263°
2026-05-05 00:52 28.67807 -81.20464 1982 ft 263 kts 263°
2026-05-05 00:52 28.67599 -81.22463 1977 ft 250 kts 263°
2026-05-05 00:52 28.67398 -81.24404 1973 ft 239 kts 263°
2026-05-05 00:53 28.67207 -81.26262 1980 ft 238 kts 263°
2026-05-05 00:53 28.67015 -81.28140 1980 ft 237 kts 263°
2026-05-05 00:53 28.66826 -81.29980 1983 ft 237 kts 263°
2026-05-05 00:53 28.66538 -81.31825 1966 ft 236 kts 248°
2026-05-05 00:54 28.65871 -81.33542 1979 ft 237 kts 243°
2026-05-05 00:54 28.65166 -81.35218 1982 ft 235 kts 243°
2026-05-05 00:54 28.64452 -81.36910 1984 ft 235 kts 243°
2026-05-05 00:54 28.63748 -81.38590 1981 ft 236 kts 243°
2026-05-05 00:55 28.63049 -81.40278 1978 ft 235 kts 243°
2026-05-05 00:55 28.62356 -81.41961 1975 ft 236 kts 243°
2026-05-05 00:55 28.61658 -81.43668 1973 ft 236 kts 243°
2026-05-05 00:55 28.60971 -81.45345 1980 ft 236 kts 243°
2026-05-05 00:56 28.60276 -81.47049 1977 ft 236 kts 243°
2026-05-05 00:56 28.59585 -81.48749 1977 ft 236 kts 243°
2026-05-05 00:56 28.58895 -81.50443 1977 ft 236 kts 244°
2026-05-05 00:56 28.58202 -81.52148 1974 ft 237 kts 243°
2026-05-05 00:57 28.57526 -81.53828 1972 ft 236 kts 243°
2026-05-05 00:57 28.56795 -81.55433 1957 ft 220 kts 229°
2026-05-05 00:57 28.55598 -81.56403 1936 ft 207 kts 192°
2026-05-05 00:57 28.54219 -81.56413 1946 ft 197 kts 159°
2026-05-05 00:58 28.52972 -81.55880 1962 ft 183 kts 154°
2026-05-05 00:58 28.51801 -81.55346 1970 ft 180 kts 153°
2026-05-05 00:58 28.50638 -81.54820 1978 ft 179 kts 154°
2026-05-05 00:58 28.49481 -81.54278 1973 ft 178 kts 147°
2026-05-05 00:59 28.48654 -81.53271 1959 ft 175 kts 110°
2026-05-05 00:59 28.48484 -81.51937 1968 ft 171 kts 94°
2026-05-05 00:59 28.48436 -81.50609 1972 ft 168 kts 93°
2026-05-05 00:59 28.48383 -81.49277 1976 ft 168 kts 94°
2026-05-05 01:00 28.48490 -81.47954 1971 ft 169 kts 73°
2026-05-05 01:00 28.49224 -81.46929 1962 ft 170 kts 45°
2026-05-05 01:00 28.49946 -81.45866 1983 ft 172 kts 76°
2026-05-05 01:00 28.50063 -81.44533 1978 ft 170 kts 81°
2026-05-05 01:01 28.50472 -81.43276 1818 ft 168 kts 58°
2026-05-05 01:01 28.51280 -81.42409 1623 ft 151 kts 55°
2026-05-05 01:01 28.51718 -81.41424 1495 ft 135 kts 72°
2026-05-05 01:01 28.52039 -81.40453 1371 ft 127 kts 72°
2026-05-05 01:02 28.52340 -81.39492 1120 ft 124 kts 73°
2026-05-05 01:02 28.52623 -81.38562 974 ft 124 kts 75°
2026-05-05 01:02 28.52907 -81.37645 777 ft 123 kts 72°
2026-05-05 01:02 28.53218 -81.36739 606 ft 122 kts 71°
2026-05-05 01:03 28.53549 -81.35856 453 ft 122 kts 70°
2026-05-05 01:03 28.53888 -81.34973 332 ft 122 kts 70°
2026-05-05 01:03 28.54228 -81.34073 153 ft 123 kts 70°
2026-05-05 01:03 28.54531 -81.33271 116 ft 77 kts 66°
2026-05-05 01:04 28.54676 -81.32887 119 ft 27 kts 66°
2026-05-05 01:04 28.54822 -81.32729 119 ft 11 kts 31°
2026-05-05 01:04 28.54900 -81.32711 119 ft 11 kts
2026-05-05 01:05 28.54977 -81.32730 119 ft 11 kts 313°
2026-05-05 01:05 28.54980 -81.32823 119 ft 13 kts 248°